Davenport, IA

7:53 AM CST on December 09, 2019 (GMT -0600)
Davenport Municipal

Weather History for KDVN - September, 2019

Change the Weather History Date:

Sunday, September 15, 2019

  Actual Average Record
Temperature  
Mean Temperature 76 °F 64 °F  
Max Temperature 85 °F 76 °F 92 °F (1955)
Min Temperature 67 °F 52 °F 35 °F (2007)
Degree Days  
Heating Degree Days 0 4  
Month to date heating degree days 5 31  
Since 1 July heating degree days 7 45  
Cooling Degree Days 11 2  
Month to date cooling degree days 87 48  
Year to date cooling degree days 927 752  
Growing Degree Days 25 (Base 50)    
Moisture  
Dew Point 67 °F    
Average Humidity 81    
Maximum Humidity 97    
Minimum Humidity 65    
Precipitation  
Precipitation 0.39 in 0.09 in 1.00 in (1967)
Month to date precipitation 2.23 1.43  
Year to date precipitation 34.26 27.25  
Snow  
Snow 0.00 in - - ()
Month to date snowfall 0.0  
Since 1 July snowfall 0.0  
Since 1 September snowfall 0.0  
Snow Depth 0.00 in    
Sea Level Pressure  
Sea Level Pressure 30.02 in    
Wind  
Wind Speed 7 mph (SSW)    
Max Wind Speed 21 mph    
Max Gust Speed 31 mph    
Visibility 9 miles    
Events Rain , Thunderstorm    
T = Trace of Precipitation, MM = Missing Value Source: NWS Daily Summary

Daily Weather History Graph

Daily Weather History Graph

Search for Another Location

Airport or City:

Astronomy

Sep. 15, 2019 Rise Set
Actual Time 6:42 AM CDT 7:12 PM CDT
Civil Twilight 6:14 AM CDT 7:39 PM CDT
Nautical Twilight 5:41 AM CDT 8:12 PM CDT
Astronomical Twilight 5:07 AM CDT 8:46 PM CDT
Moon 8:19 PM CDT (9/15) 7:53 AM CDT (9/15)
Length of Visible Light 13h 25m
Length of Day
12h 29m
Full, 98% of the Moon is Illuminated
Sep 15
Full
Sep 21
Last Quarter
Sep 28
New
Oct 5
First Quarter
Oct 13
Full

Hourly Weather History & Observations

Time (CDT) Temp. Heat Index Dew Point Humidity Pressure Visibility Wind Dir Wind Speed Gust Speed Precip Events Conditions
12:52 AM 71.1 °F - 61.0 °F 70% 30.04 in 10.0 mi South 10.4 mph 21.9 mph 0.01 in   Mostly Cloudy
1:39 AM 70.0 °F - 61.0 °F 73% 30.05 in 10.0 mi South 9.2 mph - 0.00 in Rain , Thunderstorm Light Rain
1:52 AM 70.0 °F - 61.0 °F 73% 30.02 in 10.0 mi SSW 13.8 mph 23.0 mph 0.00 in Rain , Thunderstorm Light Rain
2:11 AM 69.1 °F - 62.1 °F 78% 30.08 in 5.0 mi West 15.0 mph 21.9 mph 0.03 in Rain , Thunderstorm Thunderstorms and Rain
2:22 AM 66.9 °F - 63.0 °F 87% 30.08 in 1.5 mi West 13.8 mph 23.0 mph 0.21 in Rain , Thunderstorm Heavy Thunderstorms and Rain
2:52 AM 69.1 °F - 64.9 °F 87% 30.04 in 8.0 mi Calm Calm - 0.29 in Rain , Thunderstorm Light Thunderstorms and Rain
3:08 AM 69.1 °F - 64.0 °F 84% 30.06 in 10.0 mi South 6.9 mph - 0.00 in   Mostly Cloudy
3:28 AM 68.0 °F - 63.0 °F 84% 30.06 in 10.0 mi SSW 6.9 mph - 0.00 in Rain , Thunderstorm Light Rain
3:52 AM 66.9 °F - 64.0 °F 90% 30.03 in 10.0 mi SW 8.1 mph 19.6 mph 0.00 in Rain , Thunderstorm Light Rain
4:10 AM 68.0 °F - 64.0 °F 87% 30.03 in 9.0 mi SW 15.0 mph 23.0 mph 0.02 in Rain , Thunderstorm Light Thunderstorms and Rain
4:28 AM 68.0 °F - 64.0 °F 87% 30.04 in 10.0 mi SSW 16.1 mph 28.8 mph 0.03 in Rain Light Rain
4:52 AM 68.0 °F - 63.0 °F 84% 30.00 in 10.0 mi SSW 12.7 mph 28.8 mph 0.03 in Thunderstorm Overcast
5:15 AM 66.9 °F - 64.0 °F 90% 30.01 in 10.0 mi South 13.8 mph 26.5 mph 0.01 in   Overcast
5:52 AM 69.1 °F - 64.9 °F 87% 30.02 in 10.0 mi SSE 5.8 mph - 0.01 in   Mostly Cloudy
6:52 AM 68.0 °F - 64.9 °F 90% 30.05 in 5.0 mi East 9.2 mph - 0.04 in Rain , Thunderstorm Light Rain
7:03 AM 68.0 °F - 64.9 °F 90% 30.06 in 6.0 mi ESE 13.8 mph - 0.02 in Rain , Thunderstorm Light Rain
7:26 AM 68.0 °F - 64.9 °F 90% 30.06 in 10.0 mi ESE 9.2 mph - 0.02 in   Overcast
7:52 AM 69.1 °F - 66.0 °F 90% 30.04 in 10.0 mi SSE 8.1 mph - 0.02 in   Overcast
8:28 AM 69.1 °F - 66.9 °F 93% 30.06 in 10.0 mi SSE 6.9 mph - N/A   Overcast
8:52 AM 70.0 °F - 66.9 °F 90% 30.02 in 10.0 mi SSE 6.9 mph - N/A   Overcast
9:52 AM 70.0 °F - 66.9 °F 90% 30.02 in 10.0 mi SSE 8.1 mph - N/A   Overcast
10:52 AM 73.9 °F - 68.0 °F 82% 30.01 in 10.0 mi South 6.9 mph - N/A   Overcast
11:52 AM 79.0 °F - 69.1 °F 72% 30.01 in 10.0 mi South 12.7 mph 18.4 mph N/A   Mostly Cloudy
12:52 PM 82.0 °F 85.9 °F 70.0 °F 67% 29.99 in 10.0 mi SSW 15.0 mph 20.7 mph N/A   Mostly Cloudy
1:26 PM 82.9 °F 87.5 °F 71.1 °F 67% 30.01 in 10.0 mi SW 10.4 mph - N/A   Scattered Clouds
1:52 PM 82.0 °F 85.9 °F 70.0 °F 67% 29.98 in 10.0 mi WSW 10.4 mph 20.7 mph N/A   Mostly Cloudy
2:24 PM 82.0 °F 85.9 °F 70.0 °F 67% 29.99 in 10.0 mi WSW 11.5 mph - N/A   Overcast
2:52 PM 82.0 °F 85.9 °F 70.0 °F 67% 29.96 in 10.0 mi West 9.2 mph - N/A   Overcast
3:52 PM 82.9 °F 87.5 °F 71.1 °F 67% 29.96 in 10.0 mi West 9.2 mph - N/A   Overcast
4:52 PM 84.9 °F 90.7 °F 72.0 °F 65% 29.96 in 10.0 mi Variable 6.9 mph - N/A   Mostly Cloudy
5:20 PM 82.9 °F 87.5 °F 71.1 °F 67% 29.99 in 10.0 mi WNW 8.1 mph - N/A   Scattered Clouds
5:52 PM 84.0 °F 89.6 °F 72.0 °F 67% 29.98 in 10.0 mi NNW 5.8 mph - N/A   Partly Cloudy
6:52 PM 79.0 °F - 73.0 °F 82% 29.99 in 9.0 mi Calm Calm - N/A   Clear
7:52 PM 73.0 °F - 70.0 °F 90% 30.00 in 7.0 mi Calm Calm - N/A   Clear
8:52 PM 73.0 °F - 69.1 °F 87% 30.00 in 7.0 mi East 3.5 mph - N/A   Mostly Cloudy
9:52 PM 73.0 °F - 70.0 °F 90% 30.01 in 6.0 mi ENE 4.6 mph - N/A   Clear
10:52 PM 71.1 °F - 69.1 °F 93% 30.03 in 4.0 mi SSE 3.5 mph - N/A   Clear
11:52 PM 70.0 °F - 68.0 °F 93% 30.03 in 4.0 mi NE 3.5 mph - N/A   Clear